FW4741 Weather Reports


time (UTC)temp
C
wind
direction
speed
KPH
gust
KPH
rain 1hr
cm
rain 24hr
cm
rain mn
cm
humidity
%
barometer
mb
20260506070103 18 77 3.2 9.7 0.00 0.00 0.00 57 1022.1
20260506062103 20 77 3.2 9.7 0.00 0.00 0.00 54 1022.3
20260506061603 19 77 3.2 9.7 0.00 0.00 0.00 56 1022.4
20260506061102 19 77 3.2 9.7 0.00 0.00 0.00 57 1022.4
20260506060603 19 77 3.2 9.7 0.00 0.00 0.00 58 1022.5
20260506051103 19 77 3.2 9.7 0.00 0.00 0.00 57 1022.5
20260506050603 20 77 3.2 9.7 0.00 0.00 0.00 57 1022.4
20260506050103 20 77 3.2 9.7 0.00 0.00 0.00 55 1022.4
20260506045103 20 77 3.2 9.7 0.00 0.00 0.00 53 1022.3
20260506044603 20 77 3.2 9.7 0.00 0.00 0.00 53 1022.2
20260506044103 21 77 3.2 9.7 0.00 0.00 0.00 52 1022.2
20260506043604 21 77 3.2 9.7 0.00 0.00 0.00 53 1022.2
20260506043103 21 77 3.2 9.7 0.00 0.00 0.00 52 1022.2
20260506042603 21 77 3.2 9.7 0.00 0.00 0.00 52 1022.1
20260506042103 21 77 3.2 9.7 0.00 0.00 0.00 52 1022.0
20260506041603 21 77 3.2 9.7 0.00 0.00 0.00 51 1022.0
20260506041103 21 77 3.2 9.7 0.00 0.00 0.00 49 1022.0
20260506035603 21 77 3.2 9.7 0.00 0.00 0.00 50 1021.8
20260506035103 22 77 3.2 9.7 0.00 0.00 0.00 50 1021.8
20260506034603 22 77 3.2 9.7 0.00 0.00 0.00 49 1021.8
20260506034103 22 77 3.2 9.7 0.00 0.00 0.00 48 1021.7
20260506033103 22 77 3.2 9.7 0.00 0.00 0.00 49 1021.7
20260506032603 22 77 3.2 9.7 0.00 0.00 0.00 48 1021.7
20260506032103 22 77 3.2 9.7 0.00 0.00 0.00 48 1021.6
20260506030603 22 77 3.2 9.7 0.00 0.00 0.00 47 1021.3
20260506030103 22 77 3.2 9.7 0.00 0.00 0.00 47 1021.3
20260506025603 23 77 3.2 9.7 0.00 0.00 0.00 46 1021.2
20260506025103 23 77 3.2 9.7 0.00 0.00 0.00 46 1021.1
20260506024603 23 77 3.2 9.7 0.00 0.00 0.00 46 1021.1
20260506023603 24 77 3.2 9.7 0.00 0.00 0.00 43 1021.0
20260506023103 24 77 3.2 9.7 0.00 0.00 0.00 43 1021.0
20260506022103 25 77 3.2 9.7 0.00 0.00 0.00 42 1021.0
20260506021603 25 77 3.2 9.7 0.00 0.00 0.00 42 1020.9
20260506020103 25 77 3.2 9.7 0.00 0.00 0.00 41 1020.8
20260506015603 26 77 3.2 9.7 0.00 0.00 0.00 40 1020.6
20260506015103 26 77 3.2 9.7 0.00 0.00 0.00 39 1020.5
20260506014603 26 77 3.2 9.7 0.00 0.00 0.00 39 1020.5
20260506014103 26 77 3.2 9.7 0.00 0.00 0.00 38 1020.6
20260506013603 26 77 3.2 9.7 0.00 0.00 0.00 38 1020.5
20260506013103 26 77 3.2 9.7 0.00 0.00 0.00 38 1020.4
20260506012603 27 77 3.2 9.7 0.00 0.00 0.00 38 1020.4
20260506012103 27 77 3.2 9.7 0.00 0.00 0.00 38 1020.3
20260506011103 27 77 3.2 9.7 0.00 0.00 0.00 37 1020.2
20260506010104 27 77 3.2 9.7 0.00 0.00 0.00 37 1020.2
20260506005603 27 77 3.2 9.7 0.00 0.00 0.00 37 1020.2
20260506005103 28 77 3.2 9.7 0.00 0.00 0.00 36 1020.2
20260506004604 28 77 3.2 9.7 0.00 0.00 0.00 35 1020.1
20260506004103 28 77 3.2 9.7 0.00 0.00 0.00 35 1020.1
20260506003603 28 77 3.2 9.7 0.00 0.00 0.00 35 1020.0
20260506003103 28 77 3.2 9.7 0.00 0.00 0.00 35 1019.9
20260506002603 28 77 3.2 9.7 0.00 0.00 0.00 34 1019.9
20260506001603 28 77 3.2 9.7 0.00 0.00 0.00 34 1019.8
20260506000603 28 77 3.2 9.7 0.00 0.00 0.00 34 1019.7
20260505235603 29 77 3.2 9.7 0.00 0.00 0.00 34 1019.5
20260505235103 29 77 3.2 9.7 0.00 0.00 0.00 33 1019.5
20260505234603 29 77 3.2 9.7 0.00 0.00 0.00 33 1019.4
20260505234104 29 77 3.2 9.7 0.00 0.00 0.00 33 1019.4
20260505233603 29 77 3.2 9.7 0.00 0.00 0.00 33 1019.4
20260505233103 29 77 3.2 9.7 0.00 0.00 0.00 33 1019.4
20260505232602 29 77 3.2 9.7 0.00 0.00 0.00 33 1019.4
20260505232103 30 77 3.2 9.7 0.00 0.00 0.00 33 1019.3
20260505231603 30 77 3.2 9.7 0.00 0.00 0.00 32 1019.4
20260505231103 29 77 3.2 9.7 0.00 0.00 0.00 33 1019.4
20260505230603 29 77 3.2 9.7 0.00 0.00 0.00 32 1019.5
20260505225603 29 77 3.2 9.7 0.00 0.00 0.00 33 1019.5
20260505225103 30 77 3.2 9.7 0.00 0.00 0.00 32 1019.5
20260505224603 30 77 3.2 9.7 0.00 0.00 0.00 33 1019.5
20260505224104 30 77 3.2 9.7 0.00 0.00 0.00 33 1019.5
20260505223603 30 77 3.2 9.7 0.00 0.00 0.00 33 1019.6
20260505222603 29 77 3.2 9.7 0.00 0.00 0.00 33 1019.7
20260505222103 30 77 3.2 9.7 0.00 0.00 0.00 33 1019.7
20260505221604 29 77 3.2 9.7 0.00 0.00 0.00 34 1019.8
20260505220604 30 77 3.2 9.7 0.00 0.00 0.00 33 1019.8
20260505215603 30 77 3.2 9.7 0.00 0.00 0.00 34 1019.9
20260505215103 30 77 3.2 9.7 0.00 0.00 0.00 33 1019.9
20260505214103 29 77 3.2 9.7 0.00 0.00 0.00 34 1020.0
20260505213603 30 77 3.2 9.7 0.00 0.00 0.00 34 1020.0
20260505213103 29 77 3.2 9.7 0.00 0.00 0.00 34 1020.0
20260505212603 29 77 3.2 9.7 0.00 0.00 0.00 34 1020.2
20260505212103 29 77 3.2 9.7 0.00 0.00 0.00 34 1020.2
20260505211603 29 77 3.2 9.7 0.00 0.00 0.00 34 1020.3
20260505211103 29 77 3.2 9.7 0.00 0.00 0.00 35 1020.3
20260505210603 29 77 3.2 9.7 0.00 0.00 0.00 35 1020.3
20260505205602 29 77 3.2 9.7 0.00 0.00 0.00 35 1020.5
20260505205104 29 77 3.2 9.7 0.00 0.00 0.00 35 1020.6
20260505204603 29 77 3.2 9.7 0.00 0.00 0.00 35 1020.6
20260505204103 28 77 3.2 9.7 0.00 0.00 0.00 35 1020.7
20260505203604 28 77 3.2 9.7 0.00 0.00 0.00 35 1020.7
20260505203103 28 77 3.2 9.7 0.00 0.00 0.00 35 1020.7
20260505202103 28 77 3.2 9.7 0.00 0.00 0.00 36 1020.9
20260505201603 28 77 3.2 9.7 0.00 0.00 0.00 36 1020.9
20260505201103 28 77 3.2 9.7 0.00 0.00 0.00 36 1020.9
20260505200603 28 77 3.2 9.7 0.00 0.00 0.00 35 1021.0
20260505195603 28 77 3.2 9.7 0.00 0.00 0.00 36 1021.1
20260505195103 28 77 3.2 9.7 0.00 0.00 0.00 35 1021.2
20260505194603 28 77 3.2 9.7 0.00 0.00 0.00 36 1021.2
20260505193103 28 77 3.2 9.7 0.00 0.00 0.00 35 1021.4
20260505192603 28 77 3.2 9.7 0.00 0.00 0.00 35 1021.4
20260505192103 28 77 3.2 9.7 0.00 0.00 0.00 36 1021.5
20260505191603 28 77 3.2 9.7 0.00 0.00 0.00 35 1021.6
20260505191103 28 77 3.2 9.7 0.00 0.00 0.00 36 1021.7
20260505190603 28 77 3.2 9.7 0.00 0.00 0.00 36 1021.7
20260505190103 28 77 3.2 9.7 0.00 0.00 0.00 37 1021.8
20260505185603 28 77 3.2 9.7 0.00 0.00 0.00 36 1021.8
20260505185103 28 77 3.2 9.7 0.00 0.00 0.00 37 1021.9
20260505184603 27 77 3.2 9.7 0.00 0.00 0.00 37 1022.0
20260505184103 27 77 3.2 9.7 0.00 0.00 0.00 37 1022.1
20260505183103 27 77 3.2 9.7 0.00 0.00 0.00 36 1022.2
20260505182603 27 77 3.2 9.7 0.00 0.00 0.00 36 1022.2
20260505182102 27 77 3.2 9.7 0.00 0.00 0.00 37 1022.3
20260505181604 27 77 3.2 9.7 0.00 0.00 0.00 38 1022.4
20260505181103 27 77 3.2 9.7 0.00 0.00 0.00 37 1022.4
20260505180603 27 77 3.2 9.7 0.00 0.00 0.00 37 1022.5
20260505175103 26 77 3.2 9.7 0.00 0.00 0.00 37 1022.6
20260505173603 26 77 3.2 9.7 0.00 0.00 0.00 37 1022.8
20260505173103 26 77 3.2 9.7 0.00 0.00 0.00 37 1022.9
20260505172604 26 77 3.2 9.7 0.00 0.00 0.00 38 1023.0
20260505172103 26 77 3.2 9.7 0.00 0.00 0.00 36 1023.1
20260505171603 26 77 3.2 9.7 0.00 0.00 0.00 36 1023.1
20260505171103 26 77 3.2 9.7 0.00 0.00 0.00 39 1023.1
20260505170603 26 77 3.2 9.7 0.00 0.00 0.00 38 1023.1
20260505170103 26 77 3.2 9.7 0.00 0.00 0.00 39 1023.1
20260505165603 26 77 3.2 9.7 0.00 0.00 0.00 39 1023.2
20260505165103 25 77 3.2 9.7 0.00 0.00 0.00 37 1023.3
20260505164603 25 77 3.2 9.7 0.00 0.00 0.00 40 1023.3
20260505164104 25 77 3.2 9.7 0.00 0.00 0.00 38 1023.3
20260505163603 25 77 3.2 9.7 0.00 0.00 0.00 41 1023.3
20260505163104 25 77 3.2 9.7 0.00 0.00 0.00 39 1023.3
20260505162103 25 77 3.2 9.7 0.00 0.00 0.00 40 1023.4
20260505161104 24 77 3.2 9.7 0.00 0.00 0.00 41 1023.5
20260505160603 24 77 3.2 9.7 0.00 0.00 0.00 41 1023.5
20260505152603 23 77 3.2 9.7 0.00 0.00 0.00 48 1023.5
20260505152103 22 77 3.2 9.7 0.00 0.00 0.00 49 1023.6
20260505151603 22 77 3.2 9.7 0.00 0.00 0.00 50 1023.6
20260505151104 22 77 3.2 9.7 0.00 0.00 0.00 50 1023.7
20260505150603 21 77 3.2 9.7 0.00 0.00 0.00 51 1023.7
20260505140603 17 77 3.2 9.7 0.00 0.00 0.00 60 1023.6
20260505140104 17 77 3.2 9.7 0.00 0.00 0.00 61 1023.6
20260505130103 14 77 3.2 9.7 0.00 0.00 0.00 67 1023.3
20260505124603 14 77 3.2 9.7 0.00 0.00 0.00 70 1023.3
20260505124103 14 77 3.2 9.7 0.00 0.00 0.00 68 1023.2
20260505123603 15 77 3.2 9.7 0.00 0.00 0.00 67 1023.2
20260505123103 15 77 3.2 9.7 0.00 0.00 0.00 65 1023.1
20260505122603 15 77 3.2 9.7 0.00 0.00 0.00 65 1023.0
20260505121603 15 77 3.2 9.7 0.00 0.00 0.00 66 1022.9
20260505121103 15 77 3.2 9.7 0.00 0.00 0.00 65 1022.8
20260505120603 15 77 3.2 9.7 0.00 0.00 0.00 65 1022.8
20260505120103 15 77 3.2 9.7 0.00 0.00 0.00 65 1022.7
20260505115603 15 77 3.2 9.7 0.00 0.00 0.00 65 1022.7
20260505115103 15 77 3.2 9.7 0.00 0.00 0.00 65 1022.6
20260505114603 15 77 3.2 9.7 0.00 0.00 0.00 65 1022.6
20260505114103 15 77 3.2 9.7 0.00 0.00 0.00 65 1022.5
20260505113603 15 77 3.2 9.7 0.00 0.00 0.00 66 1022.5
20260505113103 15 77 3.2 9.7 0.00 0.00 0.00 66 1022.5
20260505112103 15 77 3.2 9.7 0.00 0.00 0.00 66 1022.5
20260505111603 15 77 3.2 9.7 0.00 0.00 0.00 65 1022.4
20260505111103 15 77 3.2 9.7 0.00 0.00 0.00 65 1022.4
20260505110603 15 77 3.2 9.7 0.00 0.00 0.00 65 1022.4
20260505110104 15 77 3.2 9.7 0.00 0.00 0.00 65 1022.4
20260505102103 16 77 3.2 9.7 0.00 0.00 0.00 62 1022.3
20260505101603 16 77 3.2 9.7 0.00 0.00 0.00 62 1022.3
20260505101103 16 77 3.2 9.7 0.00 0.00 0.00 62 1022.3
20260505100603 16 77 3.2 9.7 0.00 0.00 0.00 62 1022.3
20260505100103 16 77 3.2 9.7 0.00 0.00 0.00 61 1022.3
20260505095103 16 77 3.2 9.7 0.00 0.00 0.00 60 1022.3
20260505094603 16 77 3.2 9.7 0.00 0.00 0.00 59 1022.3
20260505094103 16 77 3.2 9.7 0.00 0.00 0.00 59 1022.3
20260505093603 16 77 3.2 9.7 0.00 0.00 0.00 60 1022.3
20260505093103 16 77 3.2 9.7 0.00 0.00 0.00 61 1022.3
20260505092603 16 77 3.2 9.7 0.00 0.00 0.00 62 1022.3
20260505092103 15 77 3.2 9.7 0.00 0.00 0.00 63 1022.4
20260505091603 16 77 3.2 9.7 0.00 0.00 0.00 62 1022.3
20260505091104 16 77 3.2 9.7 0.00 0.00 0.00 61 1022.3
20260505090603 16 77 3.2 9.7 0.00 0.00 0.00 59 1022.3
20260505085603 16 77 3.2 9.7 0.00 0.00 0.00 59 1022.2
20260505085103 16 77 3.2 9.7 0.00 0.00 0.00 58 1022.2
20260505084604 16 77 3.2 9.7 0.00 0.00 0.00 58 1022.2
20260505084103 16 77 3.2 9.7 0.00 0.00 0.00 58 1022.2
20260505083603 16 77 3.2 9.7 0.00 0.00 0.00 60 1022.2
20260505083104 16 77 3.2 9.7 0.00 0.00 0.00 59 1022.1
20260505082604 16 77 3.2 9.7 0.00 0.00 0.00 60 1022.1
20260505081603 17 77 3.2 9.7 0.00 0.00 0.00 56 1022.1
20260505081103 17 77 3.2 9.7 0.00 0.00 0.00 57 1022.1
20260505080604 17 77 3.2 9.7 0.00 0.00 0.00 58 1022.1
20260505080103 17 77 3.2 9.7 0.00 0.00 0.00 58 1022.0
20260505075603 16 77 3.2 9.7 0.00 0.00 0.00 58 1022.0
20260505075103 16 77 3.2 9.7 0.00 0.00 0.00 59 1022.1
20260505074603 17 77 3.2 9.7 0.00 0.00 0.00 59 1022.1
20260505074103 17 77 3.2 9.7 0.00 0.00 0.00 59 1022.2
20260505073603 17 77 3.2 9.7 0.00 0.00 0.00 55 1022.2
20260505072603 17 77 3.2 9.7 0.00 0.00 0.00 55 1022.1
20260505072103 17 77 3.2 9.7 0.00 0.00 0.00 55 1022.2
20260505071603 17 77 3.2 9.7 0.00 0.00 0.00 54 1022.2
20260505071103 18 77 3.2 9.7 0.00 0.00 0.00 55 1022.2